Regional Weather Roundup
Issued by NWS Raleigh/Durham, NC

Home | Current Version | Previous Version | Text Only | Print | Product List | Glossary On
Versions: 1 2 3 4 5 6 7 8 9 10 11 12 13 14 15 16 17 18 19 20 21 22 23 24 25 26 27 28 29 30 31 32 33 34 35 36 37 38 39 40 41 42 43 44 45 46 47 48 49 50
000
ASUS42 KRAH 172210
RWRRAH
NORTH CAROLINA WEATHER ROUNDUP
NATIONAL WEATHER SERVICE RALEIGH NC
600 PM EDT WED SEP 17 2014

NOTE: "FAIR" INDICATES FEW OR NO CLOUDS BELOW 12,000 FEET WITH NO
SIGNIFICANT WEATHER AND/OR OBSTRUCTIONS TO VISIBILITY.

NCZ001-053-055-056-065-067-172300-
WESTERN NORTH CAROLINA

CITY           SKY/WX    TMP DP  RH WIND       PRES   REMARKS
ASHEVILLE      CLOUDY    69  60  73 S8        29.99R
JEFFERSON      CLOUDY    63  54  74 SE5       30.02S
HICKORY        MOSUNNY   70  62  76 CALM      29.95
RUTHERFORDTON  PTSUNNY   70  64  82 SE7       29.96S
MOUNT AIRY     NOT AVBL
BOONE          PTSUNNY   66  56  69 S5        30.03S
$$

NCZ021-022-025-041-071-084-088-172300-
CENTRAL NORTH CAROLINA

CITY           SKY/WX    TMP DP  RH WIND       PRES   REMARKS
CHARLOTTE      PTSUNNY   73  64  73 N3        29.94
GREENSBORO     PTSUNNY   73  61  65 NE7       29.94S
WINSTON-SALEM  PTSUNNY   73  60  63 N7        29.96S
RALEIGH-DURHAM MOSUNNY   76  63  64 NE9       29.92F
FORT BRAGG     MOSUNNY   77  68  72 NE6       29.89F
FAYETTEVILLE   MOSUNNY   79  69  71 NE7       29.88F
BURLINGTON     MOSUNNY   75  61  61 N5        29.92F
LAURINBURG     MOSUNNY   80  66  62 E3        29.89F
$$

NCZ011-015-027-028-043-044-047-080-103-172300-
NORTHEASTERN NORTH CAROLINA

CITY           SKY/WX    TMP DP  RH WIND       PRES   REMARKS
ROCKY MT-WILSO SUNNY     76  65  68 NE6       29.93S
GREENVILLE     CLOUDY    75  63  64 NE9       29.95S
WASHINGTON     PTSUNNY   73  64  71 NE9       29.94R
ELIZABETH CITY PTSUNNY   72  60  66 NE12      29.94
MANTEO         CLOUDY    72  61  68 NE14      29.93R
CAPE HATTERAS  MOSUNNY   72  65  78 NE8G20    29.89S
$$

NCZ078-087-090-091-093-098-101-172300-
SOUTHEASTERN NORTH CAROLINA

CITY           SKY/WX    TMP DP  RH WIND       PRES   REMARKS
LUMBERTON      SUNNY     81  68  64 CALM      29.87F
GOLDSBORO      MOSUNNY   77  73  87 E2        29.90S
KINSTON        MOSUNNY   75  66  73 E8        29.92R
KENANSVILLE    CLOUDY    76  67  73 CALM      29.91R
NEW BERN       PTSUNNY   78  67  68 E7        29.92R
CHERRY POINT   PTSUNNY   75  66  73 NE12      29.91R
BEAUFORT       PTSUNNY   75  68  78 NE8       29.89R
JACKSONVILLE   CLOUDY    74  70  87 NW7       29.89S
WILMINGTON     LGT RAIN  76  71  85 E7        29.87S
$$



USA.gov is the U.S. government's official web portal to all federal, state and local government web resources and services.